Location: Unspecified
(0.0000°N, 0.0000°E)
Time: 23:31:45
(UTC+00:00)

Injun/Solrad 3 - Visible Passes

Search period start: 11 April 2026 00:00
Search period end: 21 April 2026 00:00
Orbit: 870 x 986 km, 66.8° (Epoch: 11 April)

Date Brightness Start Highest point End Pass type
(mag) Time Alt. Az. Time Alt. Az. Time Alt. Az.
18 Apr 9.4 19:16:57 10° SSE 19:18:25 16° SSE 19:18:25 16° SSE visible
19 Apr 7.9 19:27:08 10° S 19:32:18 48° ESE 19:32:18 48° ESE visible
20 Apr 7.6 19:37:50 10° SSW 19:43:39 89° ESE 19:49:32 10° NNE visible
